Погода в Пригорском

Россия / Смоленская область     54°41′03″N   32°08′27″E
темп.,
°C
ветер,
м/с
пор.,
м/с
влажн.,
%
обл.,
%
осадки,
мм/ч
давл.,
гПа
погр.,
м
14 мая, пт
пт1400:00+7юв37947 0.0 1013125
03:00+8юв41092100 0.0 1013249
06:00+9юв51291100 0.3 1012337
09:00+11юв61286100 0.3 1012547
12:00+12вюв41084100 0.0 1012468
15:00+18юв576138 0.0 10101245
18:00+18вюв5873100 0.7 1007875
21:00+14вюв4994100 5.1 1006274
15 мая, сб
сб1500:00+12в3598100 0.3 1006117
03:00+10юв239876 0.3 100642
06:00+11ю39966 0.3 1006220
09:00+15ю578328 0.3 1006577
12:00+17ююз687561 1.8 10071083
15:00+17ююз577443 2.9 1007829
18:00+16ююз688124 0.9 1007849
21:00+13ююз4109587 1.3 1008237
16 мая, вс
вс1600:00+12ю51196100 0.2 1008316
03:00+11ю4897100 0.3 1009199
06:00+10ююз3598100 0.0 1010166
09:00+15зюз3584100 0.0 1011478
12:00+18юз346739 0.6 10121217
15:00+19ююз556487 1.3 10121502
18:00+18ююз35776 0.6 1012455
21:00+14ююв228816 0.6 101219
17 мая, пн
пн1700:00+12юв229076 0.0 101213
03:00+12юв3694100 0.0 1012101
06:00+12юв389330 0.0 1012181
09:00+17юв4875100 0.0 1011416
12:00+20в5770100 0.0 1009641
15:00+22вюв5870100 1.3 10061216
18:00+20ю4879100 3.3 1004195
21:00+15зсз4698100 7.7 1005187
18 мая, вт
вт1800:00+13сз1299100 3.1 100583
03:00+13зсз3697100 3.9 1005250
06:00+12сз3597100 0.3 1005180
09:00+12зсз2398100 4.2 1006165
12:00+15сз2385100 0.5 1005530
15:00+14зюз119590 7.7 1005156
18:00+17з347876 0.1 1004777
21:00+14зюз2288100 0.8 100516